[[[{"header":{"parameterUnit":"kt","parameterCategory":2,"dx":1,"dy":1,"la1":30.253999710083008,"la2":30.299108505249023,"lo1":-89.0895004272461,"lo2":-89.04439544677734,"nx":28,"ny":28,"refTime":"2022-10-12T21:00:00:Z","depth":0,"parameterNumber":1,"parameterNumberName":"U-component_of_WINDS"},"data":[-4.2644,-4.2719,-4.2677,-4.2745,-4.2719,-4.2759,-4.2761,-4.2758,-4.2746,-4.2792,-4.2811,-4.2777,-4.275,-4.2765,-4.2786,-4.2771,-4.2786,-4.2844,-4.2818,-4.2588,-4.2554,-4.2521,-4.2501,-4.2847,-4.2847,-4.3064,-4.3066,-4.3067,-4.2487,-4.2461,-4.2483,-4.2476,-4.2495,-4.2414,-4.2402,-4.2425,-4.2464,-4.2448,-4.2463,-4.25,-4.2525,-4.2476,-4.2493,-4.2532,-4.2496,-4.254,-4.2539,-4.2537,-4.2289,-4.2268,-4.2569,-4.2569,-4.2569,-4.2569,-4.2569,-4.2569,-4.219,-4.2236,-4.2205,-4.2228,-4.2213,-4.2209,-4.2246,-4.2202,-4.2224,-4.2233,-4.2177,-4.2221,-4.2198,-4.2196,-4.2185,-4.2221,-4.2164,-4.22,-4.221,-4.2222,-4.2243,-4.1947,-4.222,-4.2219,-4.2218,-4.2218,-4.2217,0,-4.196,-4.1921,-4.1937,-4.1942,-4.1956,-4.1956,-4.1948,-4.197,-4.1871,-4.1894,-4.1923,-4.1933,-4.1954,-4.198,-4.1985,-4.1965,-4.1886,-4.187,-4.1896,-4.1928,-4.1957,-4.1948,-4.1551,-4.1864,-4.186,-4.1858,-4.1856,-4.1855,-4.1663,-4.1719,-4.1664,-4.1682,-4.1665,-4.1695,-4.1704,-4.1612,-4.1626,-4.1604,-4.1651,-4.1672,-4.1685,-4.1741,-4.169,-4.1706,-4.1668,-4.1793,-4.167,-4.1698,-4.1677,-4.1677,-4.1685,-4.1821,-4.1825,-4.1829,-4.1832,0,-4.1501,-4.1426,-4.1499,-4.1437,-4.1424,-4.1489,-4.1438,-4.148,-4.143,-4.1482,-4.1489,-4.1412,-4.1443,-4.137,-4.139,-4.1352,-4.1467,-4.1426,-4.1476,-4.1466,-4.1575,-4.1568,-4.1929,-4.1974,-4.1608,-4.1612,-4.1614,0,-4.122,-4.1297,-4.1182,-4.1228,-4.1311,-4.1214,-4.1301,-4.1266,-4.124,-4.128,-4.1173,-4.1213,-4.1111,-4.1142,-4.1085,-4.1164,-4.1166,-4.1144,-4.1129,-4.1156,-4.116,-4.1167,-4.1153,-4.1084,-4.1082,-4.1081,-4.1079,0,-4.0978,-4.1003,-4.1076,-4.107,-4.1011,-4.1049,-4.1026,-4.0995,-4.1005,-4.1005,-4.1011,-4.1018,-4.1024,-4.1034,-4.0961,-4.0881,-4.1053,-4.0928,-4.1031,-4.1034,-4.1077,-4.1076,-4.1409,-4.1077,-4.1077,-4.1076,-4.1075,0,-4.074,-4.0738,-4.0853,-4.0802,-4.0813,-4.086,-4.086,-4.0883,-4.0858,-4.0824,-4.0823,-4.0744,-4.0801,-4.0684,-4.0765,-4.0683,-4.0696,-4.0677,-4.0683,-4.0688,-4.0559,-4.0764,-4.1084,-4.1118,-4.0689,-4.0685,-4.0682,0,-4.0487,-4.058,-4.0496,-4.0607,-4.064,-4.0518,-4.0569,-4.0549,-4.0506,-4.0531,-4.0484,-4.0512,-4.0407,-4.0406,-4.0455,-4.041,-4.0518,-4.0393,-4.0438,-4.0441,-4.0454,-4.0746,-4.0815,-4.1021,-4.064,-4.0644,-4.0647,0,-4.028,-4.0203,-4.0229,-4.0218,-4.0172,-4.0198,-4.0256,-4.026,-4.0281,-4.0267,-4.0317,-4.0351,-4.0276,-4.0274,-4.0209,-4.0265,-4.0442,-4.0176,-4.0174,-4.0232,-4.0609,-4.0675,-4.071,-4.0387,-4.0392,-4.0396,-4.0613,0,-3.9949,-3.9983,-4.0046,-4.0023,-4.0029,-4.0092,-4.0008,-4.0027,-3.9963,-3.9916,-3.9984,-3.9946,-3.9952,-3.9968,-3.9906,-4.0054,-4.0019,-3.9937,-3.982,-4.001,-4.008,-4.0108,-3.9723,-3.9719,-3.9715,-3.9713,0,0,-3.9728,-3.9773,-3.9677,-3.9727,-3.9727,-3.9597,-3.9672,-3.9657,-3.9631,-3.9636,-3.9568,-3.9613,-3.9585,-3.9678,-3.973,-3.973,-3.9751,-3.9686,-3.9919,-3.9942,-3.9963,-4.004,-4.007,-3.9707,-3.9705,-3.9704,-3.9703,0,-3.9589,-3.9556,-3.9629,-3.9608,-3.9574,-3.9518,-3.9536,-3.948,-3.9453,-3.9515,-3.9409,-3.944,-3.9475,-3.9462,-3.946,-3.9672,-3.9593,-3.9679,-3.9824,-3.9888,-3.9916,-3.994,-4.0021,-4.0051,-3.9695,-3.9696,-3.9696,0,-3.9374,-3.933,-3.9355,-3.9344,-3.932,-3.9355,-3.9211,-3.9253,-3.9279,-3.9135,-3.92,-3.9168,-3.914,-3.9235,-3.9275,-3.9215,-3.9454,-3.9361,-3.938,-3.9384,-3.9442,-3.9475,-3.9505,-3.9114,-3.9112,-3.9111,0,0,-3.9266,-3.9295,-3.9218,-3.9307,-3.93,-3.9217,-3.9226,-3.9162,-3.9137,-3.9128,-3.9084,-3.9066,-3.9086,-3.9102,-3.9116,-3.9231,-3.9221,-3.9293,-3.932,-3.9343,-3.936,-3.9424,-3.9457,-3.9105,-3.9104,-3.9104,0,0,-3.9215,-3.9128,-3.9066,-3.9159,-3.9138,-3.9069,-3.9129,-3.9052,-3.9055,-3.9039,-3.8934,-3.8925,-3.9011,-3.8984,-3.8909,-3.9074,-3.8958,-3.8974,-3.9089,-3.9122,-3.9149,-3.9156,-3.8757,0,0,0,0,0,-3.9029,-3.9138,-3.9083,-3.9086,-3.9071,-3.91,-3.9098,-3.9012,-3.8933,-3.8983,-3.8934,-3.8846,-3.8922,-3.8853,-3.8859,-3.8945,-3.9023,-3.9037,-3.9051,-3.9225,-3.9261,-3.9291,0,0,0,0,0,0,-3.9029,-3.9032,-3.908,-3.9017,-3.9013,-3.9095,-3.8943,-3.8923,-3.8926,-3.8908,-3.8858,-3.8844,-3.8773,-3.8845,-3.8851,-3.8934,-3.8754,-3.9028,-3.9041,-3.9052,-3.9237,-3.9266,-3.9292,0,0,0,0,0,-3.9028,-3.9031,-3.9029,-3.9015,-3.9012,-3.8925,-3.8938,-3.892,-3.8921,-3.8845,-3.8828,-3.8856,-3.8778,-3.8777,-3.8848,-3.8934,-3.8749,-3.8752,-3.9036,-3.9046,-3.9055,-3.9251,0,0,0,0,0,0,-3.9028,-3.9016,-3.9026,-3.9022,-3.8966,-3.8918,-3.8908,-3.8918,-3.8855,-3.884,-3.8838,-3.8825,-3.8783,-3.8781,-3.8782,-3.8938,-3.8745,-3.8748,-3.875,-3.9044,-3.9051,-3.9058,0,0,0,0,0,0,-3.9013,-3.9013,-3.9024,-3.8967,-3.8955,-3.8913,-3.8904,-3.895,-3.8857,-3.8852,-3.8839,-3.8833,-3.8783,-3.8785,-3.8784,-3.8861,-3.8742,-3.8745,-3.8747,-3.8748,-3.905,-3.9056,0,0,0,0,0,0,-3.9012,-3.9011,-3.8967,-3.8959,-3.8948,-3.8895,-3.8953,-3.8943,-3.8805,-3.8857,-3.8791,-3.8784,-3.8789,-3.8787,-3.8787,-3.8864,-3.8862,-3.8742,-3.8744,-3.8745,-3.8746,0,0,0,0,0,0,0,-3.901,-3.9034,-3.9051,-3.8952,-3.8942,-3.8984,-3.8982,-3.8981,-3.8804,-3.8798,-3.8792,-3.8787,-3.8727,-3.873,-3.8733,-3.8867,0,0,-3.8742,-3.8743,0,0,0,0,0,0,0,0,-3.9032,-3.9033,-3.9051,-3.905,-3.9049,-3.8983,-3.8983,-3.8982,-3.8803,-3.8798,-3.8794,-3.8789,-3.8728,-3.8731,-3.8733,0,0,0,0,0,0,0,0,0,0,0,0,0,0,0,-3.9051,-3.905,0,-3.8983,-3.8983,-3.8982,-3.8802,-3.8798,-3.8795,-3.8791,-3.8729,-3.8731,-3.8733,0,0,0,0,0,0,0,0,0,0,0,0,0,0,0,0,0,0,0,0,0,0,0,0,0,0,0,0,0,0,0,0,0,0,0,0,0,0,0,0,0,0,0,0,0,0,0,0,0,0,0,0,0,0,0,0,0,0,0,0,0,0,0,0,0,0,0,0,0]}],[{"header":{"parameterUnit":"kt","parameterCategory":2,"dx":1,"dy":1,"la1":30.253999710083008,"la2":30.299108505249023,"lo1":-89.0895004272461,"lo2":-89.04439544677734,"nx":28,"ny":28,"refTime":"2022-10-12T21:00:00:Z","depth":0,"parameterNumber":2,"parameterNumberName":"V-component_of_WINDS"},"data":[-2.1342,-2.1364,-2.1381,-2.1415,-2.1435,-2.1461,-2.1476,-2.1497,-2.1517,-2.155,-2.1572,-2.1591,-2.1618,-2.1648,-2.1673,-2.168,-2.169,-2.1687,-2.1697,-2.1695,-2.1696,-2.1697,-2.1693,-2.1689,-2.1689,-2.1698,-2.1698,-2.1698,-2.1342,-2.1362,-2.1384,-2.1417,-2.1437,-2.145,-2.1477,-2.1492,-2.1515,-2.154,-2.1562,-2.1592,-2.1618,-2.1646,-2.1674,-2.1686,-2.1693,-2.1692,-2.1692,-2.1696,-2.1695,-2.169,-2.1686,-2.1686,-2.1686,-2.1686,-2.1686,-2.1686,-2.1347,-2.136,-2.1389,-2.1413,-2.1434,-2.1455,-2.147,-2.1493,-2.1514,-2.1545,-2.1559,-2.1585,-2.1613,-2.1653,-2.167,-2.1692,-2.1696,-2.1699,-2.1701,-2.1701,-2.1701,-2.169,-2.1697,-2.1697,-2.1697,-2.1697,-2.1697,0,-2.1356,-2.1369,-2.1391,-2.1418,-2.1436,-2.1458,-2.1481,-2.1491,-2.1522,-2.1539,-2.1564,-2.1581,-2.1615,-2.1641,-2.167,-2.1687,-2.1702,-2.1704,-2.1707,-2.1702,-2.1694,-2.17,-2.1698,-2.1704,-2.1704,-2.1704,-2.1704,-2.1704,-2.1365,-2.1376,-2.1414,-2.1427,-2.1443,-2.1464,-2.1479,-2.1506,-2.1521,-2.1553,-2.1563,-2.1588,-2.161,-2.1648,-2.1673,-2.1698,-2.1706,-2.1707,-2.1709,-2.1704,-2.1708,-2.1707,-2.171,-2.1706,-2.1706,-2.1705,-2.1705,0,-2.1368,-2.1393,-2.1417,-2.1452,-2.1461,-2.1473,-2.1503,-2.1516,-2.1536,-2.1557,-2.1563,-2.1594,-2.1618,-2.1643,-2.1674,-2.1687,-2.1708,-2.1714,-2.1699,-2.1702,-2.1707,-2.1707,-2.1714,-2.1717,-2.172,-2.172,-2.172,0,-2.1385,-2.14,-2.1437,-2.1449,-2.1466,-2.1492,-2.1509,-2.1527,-2.155,-2.1567,-2.1587,-2.1603,-2.1632,-2.1651,-2.1669,-2.169,-2.1695,-2.1707,-2.1712,-2.1706,-2.1705,-2.1715,-2.1715,-2.172,-2.172,-2.172,-2.172,0,-2.1389,-2.1425,-2.1444,-2.1456,-2.1495,-2.1503,-2.152,-2.1546,-2.156,-2.1583,-2.1593,-2.1616,-2.163,-2.1649,-2.1672,-2.1673,-2.1698,-2.1704,-2.1709,-2.1709,-2.1714,-2.1713,-2.1713,-2.1719,-2.1719,-2.1719,-2.1719,0,-2.1407,-2.143,-2.1453,-2.1486,-2.1494,-2.1506,-2.1533,-2.1549,-2.1574,-2.1587,-2.1604,-2.1621,-2.164,-2.1645,-2.1672,-2.1667,-2.168,-2.1692,-2.1693,-2.1697,-2.1702,-2.17,-2.1696,-2.1698,-2.17,-2.17,-2.17,0,-2.1406,-2.1436,-2.1458,-2.148,-2.1497,-2.152,-2.1534,-2.1556,-2.1573,-2.1591,-2.161,-2.1629,-2.1638,-2.1647,-2.1657,-2.1678,-2.1684,-2.1677,-2.1704,-2.1705,-2.1698,-2.1695,-2.1689,-2.1694,-2.1698,-2.1698,-2.1698,0,-2.1408,-2.1453,-2.1455,-2.1471,-2.1503,-2.1517,-2.1532,-2.1557,-2.1568,-2.1589,-2.1604,-2.163,-2.1638,-2.1653,-2.1668,-2.1677,-2.168,-2.1685,-2.1686,-2.1685,-2.1698,-2.1693,-2.1693,-2.1689,-2.1689,-2.1689,-2.1697,0,-2.1433,-2.145,-2.1457,-2.1488,-2.1502,-2.1515,-2.1541,-2.1553,-2.1567,-2.1585,-2.1606,-2.1628,-2.1652,-2.1658,-2.1671,-2.1683,-2.1685,-2.1693,-2.17,-2.1697,-2.17,-2.1701,-2.1694,-2.1694,-2.1694,-2.1695,0,0,-2.1427,-2.1452,-2.1474,-2.149,-2.1504,-2.1526,-2.1539,-2.1555,-2.1585,-2.1594,-2.1598,-2.1638,-2.1656,-2.1678,-2.1679,-2.1688,-2.1693,-2.1692,-2.1698,-2.1698,-2.1699,-2.1701,-2.1702,-2.1695,-2.1695,-2.1695,-2.1695,0,-2.1441,-2.1459,-2.147,-2.1488,-2.1514,-2.1532,-2.1535,-2.1565,-2.1576,-2.1596,-2.1614,-2.1629,-2.1658,-2.1676,-2.1688,-2.169,-2.1703,-2.1695,-2.1689,-2.17,-2.17,-2.17,-2.1702,-2.1703,-2.1696,-2.1696,-2.1696,0,-2.1449,-2.1471,-2.1479,-2.151,-2.1527,-2.1543,-2.1557,-2.1573,-2.1585,-2.1607,-2.1626,-2.1642,-2.1666,-2.1682,-2.1691,-2.1694,-2.1711,-2.1709,-2.1708,-2.1709,-2.1721,-2.1721,-2.1721,-2.1723,-2.1723,-2.1723,0,0,-2.1459,-2.1474,-2.1505,-2.1515,-2.1524,-2.1551,-2.1561,-2.1576,-2.1597,-2.1605,-2.1625,-2.1645,-2.1663,-2.1674,-2.1692,-2.1706,-2.1714,-2.1711,-2.171,-2.1709,-2.171,-2.1721,-2.1721,-2.1723,-2.1723,-2.1723,0,0,-2.1463,-2.1499,-2.1509,-2.1524,-2.1544,-2.1575,-2.158,-2.1593,-2.1611,-2.1612,-2.1637,-2.1643,-2.1659,-2.1673,-2.167,-2.1695,-2.1702,-2.1703,-2.1686,-2.1684,-2.1683,-2.168,-2.1687,0,0,0,0,0,-2.1491,-2.1495,-2.1504,-2.151,-2.1548,-2.157,-2.1575,-2.1596,-2.1601,-2.1605,-2.1624,-2.1636,-2.1677,-2.1675,-2.1681,-2.1684,-2.1723,-2.1723,-2.1723,-2.1705,-2.1703,-2.1702,0,0,0,0,0,0,-2.1493,-2.1501,-2.1504,-2.1534,-2.1543,-2.157,-2.1583,-2.1589,-2.1601,-2.1603,-2.1632,-2.1636,-2.1654,-2.1674,-2.1678,-2.1681,-2.1686,-2.1723,-2.1723,-2.1723,-2.1704,-2.1703,-2.1702,0,0,0,0,0,-2.1495,-2.1501,-2.1556,-2.1535,-2.1542,-2.1571,-2.1583,-2.1588,-2.1597,-2.1626,-2.1631,-2.1612,-2.1654,-2.1659,-2.1677,-2.1678,-2.1682,-2.1684,-2.1723,-2.1723,-2.1723,-2.1703,0,0,0,0,0,0,-2.1497,-2.1506,-2.1558,-2.1561,-2.1534,-2.157,-2.1576,-2.1587,-2.162,-2.1626,-2.1608,-2.1609,-2.1653,-2.1658,-2.1662,-2.1676,-2.168,-2.1682,-2.1683,-2.1723,-2.1723,-2.1723,0,0,0,0,0,0,-2.1503,-2.1509,-2.156,-2.1558,-2.1561,-2.1569,-2.1574,-2.1591,-2.162,-2.16,-2.1602,-2.1608,-2.1647,-2.1657,-2.166,-2.1686,-2.1678,-2.168,-2.1681,-2.1681,-2.1723,-2.1723,0,0,0,0,0,0,-2.1506,-2.1511,-2.1558,-2.156,-2.1563,-2.1599,-2.1584,-2.1621,-2.1619,-2.1598,-2.162,-2.162,-2.1646,-2.1649,-2.1658,-2.1683,-2.1685,-2.1678,-2.1679,-2.168,-2.168,0,0,0,0,0,0,0,-2.1508,-2.1471,-2.154,-2.1561,-2.1564,-2.159,-2.1591,-2.1592,-2.1619,-2.162,-2.162,-2.162,-2.1669,-2.167,-2.1672,-2.1681,0,0,-2.1678,-2.1679,0,0,0,0,0,0,0,0,-2.147,-2.1471,-2.154,-2.1541,-2.1541,-2.159,-2.1591,-2.1591,-2.162,-2.162,-2.162,-2.162,-2.1669,-2.167,-2.1672,0,0,0,0,0,0,0,0,0,0,0,0,0,0,0,-2.154,-2.1541,0,-2.159,-2.1591,-2.1591,-2.162,-2.162,-2.162,-2.162,-2.1669,-2.1671,-2.1672,0,0,0,0,0,0,0,0,0,0,0,0,0,0,0,0,0,0,0,0,0,0,0,0,0,0,0,0,0,0,0,0,0,0,0,0,0,0,0,0,0,0,0,0,0,0,0,0,0,0,0,0,0,0,0,0,0,0,0,0,0,0,0,0,0,0,0,0,0]}]]]